| time (UTC) | temp F | wind direction | speed knots | gust knots | rain 1hr in | rain 24hr in | rain mn in | humidity % | barometer mb |
| 20260503021511 | 41 | 198 | 0.0 | 0.9 | 0.00 | 0.00 | 0.00 | 79 | 1018.6 |
| 20260503020008 | 41 | 214 | 0.0 | 1.7 | 0.00 | 0.00 | 0.00 | 78 | 1018.8 |
| 20260503014507 | 42 | 196 | 0.0 | 0.9 | 0.00 | 0.00 | 0.00 | 77 | 1018.8 |
| 20260503013005 | 42 | 225 | 0.0 | 1.7 | 0.00 | 0.00 | 0.00 | 78 | 1018.9 |
| 20260503011506 | 42 | 141 | 0.0 | 0.9 | 0.00 | 0.00 | 0.00 | 78 | 1019.0 |
| 20260503010106 | 43 | 211 | 0.9 | 1.7 | 0.00 | 0.00 | 0.00 | 77 | 1019.0 |
| 20260503004600 | 43 | 202 | 0.0 | 1.7 | 0.00 | 0.00 | 0.00 | 76 | 1019.0 |
| 20260503003105 | 44 | 219 | 0.0 | 0.9 | 0.00 | 0.00 | 0.00 | 75 | 1019.0 |
| 20260503001553 | 45 | 215 | 0.0 | 0.9 | 0.00 | 0.00 | 0.00 | 74 | 1019.2 |
| 20260502234548 | 46 | 237 | 0.0 | 0.9 | 0.00 | 0.00 | 0.00 | 71 | 1019.4 |
| 20260502233050 | 46 | 238 | 0.0 | 0.0 | 0.00 | 0.00 | 0.00 | 71 | 1019.5 |
| 20260502231546 | 47 | 238 | 0.0 | 0.9 | 0.00 | 0.00 | 0.00 | 70 | 1019.6 |
| 20260502230042 | 47 | 238 | 0.0 | 0.9 | 0.00 | 0.00 | 0.00 | 70 | 1019.6 |
| 20260502224538 | 48 | 263 | 0.0 | 0.0 | 0.00 | 0.00 | 0.00 | 68 | 1019.7 |
| 20260502223036 | 49 | 264 | 0.0 | 0.9 | 0.00 | 0.00 | 0.00 | 66 | 1019.8 |
| 20260502221533 | 50 | 220 | 0.0 | 0.9 | 0.00 | 0.00 | 0.00 | 63 | 1019.8 |
| 20260502220032 | 50 | 221 | 0.0 | 2.6 | 0.00 | 0.00 | 0.00 | 65 | 1019.8 |
| 20260502214530 | 51 | 263 | 0.9 | 2.6 | 0.00 | 0.00 | 0.00 | 64 | 1019.8 |
| 20260502213034 | 52 | 229 | 0.9 | 1.7 | 0.00 | 0.00 | 0.00 | 62 | 1019.9 |
| 20260502211529 | 53 | 250 | 0.0 | 1.7 | 0.00 | 0.00 | 0.00 | 60 | 1019.9 |
| 20260502210028 | 53 | 221 | 0.0 | 0.9 | 0.00 | 0.00 | 0.00 | 59 | 1019.9 |
| 20260502204529 | 54 | 222 | 0.0 | 1.7 | 0.00 | 0.00 | 0.00 | 57 | 1020.0 |
| 20260502203028 | 55 | 205 | 0.0 | 1.7 | 0.00 | 0.00 | 0.00 | 56 | 1020.1 |
| 20260502201527 | 56 | 207 | 0.0 | 1.7 | 0.00 | 0.00 | 0.00 | 55 | 1020.0 |
| 20260502200035 | 56 | 190 | 0.9 | 2.6 | 0.00 | 0.00 | 0.00 | 54 | 1020.0 |
| 20260502194528 | 58 | 210 | 0.9 | 3.5 | 0.00 | 0.00 | 0.00 | 51 | 1020.0 |
| 20260502193025 | 59 | 198 | 0.9 | 3.5 | 0.00 | 0.00 | 0.00 | 49 | 1020.0 |
| 20260502191524 | 60 | 225 | 0.9 | 2.6 | 0.00 | 0.00 | 0.00 | 48 | 1020.0 |
| 20260502190024 | 62 | 257 | 0.9 | 2.6 | 0.00 | 0.00 | 0.00 | 45 | 1020.0 |
| 20260502184531 | 64 | 238 | 0.9 | 3.5 | 0.00 | 0.00 | 0.00 | 40 | 1019.9 |
| 20260502183023 | 65 | 184 | 0.0 | 1.7 | 0.00 | 0.00 | 0.00 | 38 | 1019.9 |
| 20260502181522 | 67 | 179 | 0.0 | 2.6 | 0.00 | 0.00 | 0.00 | 36 | 1019.8 |
| 20260502163022 | 75 | 91 | 0.9 | 2.6 | 0.00 | 0.00 | 0.00 | 26 | 1020.1 |
| 20260502161513 | 75 | 205 | 0.9 | 3.5 | 0.00 | 0.00 | 0.00 | 26 | 1020.4 |
| 20260502151506 | 78 | 97 | 0.0 | 3.5 | 0.00 | 0.00 | 0.00 | 23 | 1021.1 |
| 20260502123054 | 72 | 255 | 2.6 | 6.1 | 0.00 | 0.00 | 0.00 | 28 | 1023.1 |
| 20260502121542 | 73 | 98 | 0.9 | 4.3 | 0.00 | 0.00 | 0.00 | 25 | 1023.3 |
| 20260502114537 | 73 | 214 | 0.9 | 3.5 | 0.00 | 0.00 | 0.00 | 25 | 1023.6 |
| 20260502113039 | 71 | 219 | 0.0 | 5.2 | 0.00 | 0.00 | 0.00 | 27 | 1023.8 |
| 20260502111544 | 71 | 120 | 2.6 | 8.7 | 0.00 | 0.00 | 0.00 | 27 | 1024.0 |
| 20260502110031 | 72 | 276 | 2.6 | 5.2 | 0.00 | 0.00 | 0.00 | 26 | 1024.3 |
| 20260502104528 | 72 | 221 | 1.7 | 4.3 | 0.00 | 0.00 | 0.00 | 28 | 1024.4 |
| 20260502103025 | 71 | 55 | 0.9 | 3.5 | 0.00 | 0.00 | 0.00 | 31 | 1024.6 |
| 20260502101522 | 70 | 42 | 0.9 | 5.2 | 0.00 | 0.00 | 0.00 | 32 | 1024.8 |
| 20260502091513 | 68 | 316 | 1.7 | 5.2 | 0.00 | 0.00 | 0.00 | 36 | 1025.4 |
| 20260502070048 | 61 | 88 | 0.9 | 1.7 | 0.00 | 0.00 | 0.00 | 49 | 1026.4 |
| 20260502064543 | 59 | 61 | 0.9 | 1.7 | 0.00 | 0.00 | 0.00 | 53 | 1026.5 |
| 20260502063055 | 57 | 113 | 0.0 | 1.7 | 0.00 | 0.00 | 0.00 | 57 | 1026.6 |
| 20260502061542 | 56 | 207 | 0.0 | 0.9 | 0.00 | 0.00 | 0.00 | 57 | 1026.7 |
| 20260502060036 | 53 | 107 | 0.0 | 0.9 | 0.00 | 0.00 | 0.00 | 63 | 1026.7 |
| 20260502054529 | 49 | 219 | 0.0 | 1.7 | 0.00 | 0.00 | 0.00 | 67 | 1026.7 |
| 20260502053027 | 48 | 200 | 0.0 | 0.9 | 0.00 | 0.00 | 0.00 | 67 | 1026.7 |
| 20260502051525 | 47 | 198 | 0.0 | 0.9 | 0.00 | 0.00 | 0.00 | 69 | 1026.7 |
| 20260502050021 | 46 | 203 | 0.0 | 0.9 | 0.00 | 0.00 | 0.00 | 71 | 1026.8 |
| 20260502044518 | 43 | 203 | 0.0 | 0.9 | 0.00 | 0.00 | 0.00 | 76 | 1026.7 |
| 20260502043019 | 40 | 203 | 0.0 | 1.7 | 0.00 | 0.00 | 0.00 | 81 | 1026.7 |
| 20260502041519 | 38 | 195 | 0.0 | 0.9 | 0.00 | 0.00 | 0.00 | 83 | 1026.7 |
| 20260502040017 | 37 | 215 | 0.0 | 0.9 | 0.00 | 0.00 | 0.00 | 86 | 1026.7 |
| 20260502034516 | 36 | 193 | 0.0 | 0.0 | 0.00 | 0.00 | 0.00 | 86 | 1026.7 |
| 20260502033018 | 36 | 205 | 0.0 | 0.9 | 0.00 | 0.00 | 0.00 | 86 | 1026.7 |
| 20260502031512 | 37 | 205 | 0.0 | 0.9 | 0.00 | 0.00 | 0.00 | 85 | 1026.7 |
| 20260502030019 | 37 | 210 | 0.0 | 0.9 | 0.00 | 0.00 | 0.00 | 85 | 1026.8 |
| 20260502024507 | 37 | 206 | 0.0 | 0.0 | 0.00 | 0.00 | 0.00 | 85 | 1026.9 |
| 20260502023007 | 38 | 206 | 0.0 | 0.0 | 0.00 | 0.00 | 0.00 | 85 | 1027.0 |